Terug naar catalogus

CZ-6A DEB

ActiefPO
NORAD 56271·DEBRIS·🇨🇳 China

Gelanceerd Nov 11, 2022 vanaf Taiyuan Satellite Launch Center

Loading…

Volgende Passages (komende 24 uur)

TLE

VersSource: Space-Track

Epoch: Sep 14, 2026, 09:50 UTC

1 56271U 22151ACP 26257.40986324  .00010885  00000-0  14092-2 0  9990
2 56271  98.5307 313.0983 0044309 351.6031   8.4433 14.80358701185273

Volg CZ-6A DEB in realtime met AllMySat

Download on the App Store